User: anonymous   Login
Location: Oracle State Park
(32.6095°N, 110.7330°W)
Time: 01:51:22
(UTC-07:00)
Language:

PRISM - Orbit

View from above orbital plane
View from above orbital plane
View from above satellite
View from above satellite

Ground track
Ground track

The orbit data is extracted from the following two-line orbital elements,

1 33493U 09002B   19324.89679080 +.00000852 +00000-0 +79851-4 0  9998
2 33493 098.1272 251.7606 0016133 034.1761 326.0494 14.96813816588350
Epoch (UTC): 20 November 2019 21:31:22
Eccentricity: 0.0016133
inclination: 98.1272°
perigee height: 565 km
apogee height: 588 km
right ascension of ascending node: 251.7606°
argument of perigee: 34.1761°
revolutions per day: 14.96813816
mean anomaly at epoch: 326.0494°
orbit number at epoch: 58835

The dashed part of the orbit path shows where the satellite is in the earth's shadow,  

DLR